Regional Weather Roundup
Issued by NWS State College, PA

Home | Current Version | Previous Version | Graphics & Text | Print | Product List | Glossary On
Versions: 1 2 3 4 5 6 7 8 9 10 11 12 13 14 15 16 17 18 19 20 21 22 23 24 25 26 27 28 29 30 31 32 33 34 35 36 37 38 39 40 41 42 43 44 45 46 47 48 49 50
000
ASUS41 KCTP 262303
RWRCTP

REGIONAL WEATHER ROUNDUP
NATIONAL WEATHER SERVICE STATE COLLEGE PA
600 PM EST MON JAN 26 2015

Note: "fair" indicates few or no clouds below 12,000 feet with no
significant weather and/or obstructions to visibility.

* = STATION THAT DOES NOT REPORT PRECIPITATION /E.G. RAIN...SNOW...ETC/
    THUNDER OR FOG.

PAZ002>004-007>009-013>016-020>023-029>032-270000-
WESTERN PENNSYLVANIA

CITY           SKY/WX    TMP DP  RH WIND       PRES   REMARKS
ERIE           CLOUDY    21  16  81 NE12      29.86R WCI   9
MEADVILLE      CLOUDY    20  15  81 NW7       29.78R WCI  11
FRANKLIN*      CLOUDY    21  18  86 N5        29.77R WCI  15
NEW CASTLE     FLURRIES  22  17  81 NW7       29.82R WCI  14
BEAVER COUNTY  LGT SNOW  23  21  93 NW6       29.78R
BUTLER*        CLOUDY    25  21  86 N3        29.78R
PITTSBURGH INT LGT SNOW  24  21  88 NW12      29.77R WCI  13
PITTSBURGH     LGT SNOW  25  21  85 NW9       29.75R FOG
INDIANA*       CLOUDY    23  21  93 E7        29.77R FOG     WCI  15
LATROBE        LGT SNOW  28  28 100 N6        29.75R
WASHINGTON CO* CLOUDY    25  19  80 CALM      29.79R
$$

PAZ004>006-010>012-017>019-024>028-033>037-041-042-045-046-049>053-270000-
CENTRAL PENNSYLVANIA

CITY           SKY/WX    TMP DP  RH WIND       PRES   REMARKS
BRADFORD       CLOUDY    17  12  80 NE9       29.73R WCI   6
DUBOIS         CLOUDY    20  16  84 E6        29.72R WCI  12
CLEARFIELD     LGT SNOW  20  17  88 NE6       29.76R FOG     WCI  12
JOHNSTOWN      LGT SNOW  21  18  88 E6        29.66R FOG     WCI  13
ALTOONA        LGT SNOW  21  19  92 N7        29.74R FOG     WCI  12
STATE COLLEGE  LGT SNOW  21  19  93 NE7       29.77R FOG     WCI  13
WILLIAMSPORT   LGT SNOW  24  21  88 SW5       29.83R FOG
SELINSGROVE    LGT SNOW  26  21  81 NE7       29.82R
FT INDIANTOWN  MIX PCPN  25  19  77 NE7       29.80R
CAPITAL CITY   FLURRIES  25  19  78 E9        29.80R
HARRISBURG     FLURRIES  24  18  77 E7        29.80R
YORK           FLURRIES  24  20  84 NE7       29.77R
$$

PAZ038>040-043-044-047-048-054-055-060>062-067>071-270000-
EASTERN PENNSYLVANIA

CITY           SKY/WX    TMP DP  RH WIND       PRES   REMARKS
SCRANTON       CLOUDY    22  15  75 NE10      29.81R HAZE    WCI  11
MOUNT POCONO   LGT SNOW  19  14  81 E20G28    29.74R VSB 1   WCI   3
ALLENTOWN      LGT SNOW  21  15  78 NE16      29.83R WCI   7
QUAKERTOWN*    NOT AVBL
READING        CLOUDY    21  15  78 NE12      29.80R WCI   9
LANCASTER      SNOW      21  18  88 NE12      29.78R VSB 1/2 WCI   9
COATESVILLE    LGT SNOW  25  23  93 NE7G18    29.74S
POTTSTOWN      FLURRIES  23  18  81 NE9       29.80S WCI  13
BLUE BELL      CLOUDY    27  23  86 NE10G20   29.77S
DOYLESTOWN     LGT SNOW  22  20  92 NE14G26   29.78S FOG     WCI   9
WILLOW GROVE   NOT AVBL
NORTH PHILA    CLOUDY    27  19  72 NE18G25   29.79F WCI  14
PHILADELPHIA   CLOUDY    27  21  78 NE23G30   29.77F WCI  12
$$


USA.gov is the U.S. government's official web portal to all federal, state and local government web resources and services.